Time,TemperatureF,DewpointF,PressureIn,WindDirection,WindDirectionDegrees,WindSpeedMPH,WindSpeedGustMPH,Humidity,HourlyPrecipIn,Conditions,Clouds,dailyrainin,SolarRadiationWatts/m^2,SoftwareType,DateUTC
2013-11-28 00:03:00,21.2,14.8,30.06,South,178,4.0,4.0,76,0.00,,SKC,0.00,0.00,VWS V14.00,2013-11-28 06:03:00,
2013-11-28 00:10:00,21.2,13.0,30.06,SSE,163,2.0,3.0,70,0.00,,SKC,0.00,0.00,VWS V14.00,2013-11-28 06:10:00,
2013-11-28 00:15:00,21.2,13.0,30.06,South,175,0.0,4.0,70,0.00,,SKC,0.00,0.00,VWS V14.00,2013-11-28 06:15:00,
2013-11-28 00:20:00,21.1,12.9,30.07,South,175,1.0,2.0,70,0.00,,SKC,0.00,0.00,VWS V14.00,2013-11-28 06:20:00,
2013-11-28 00:25:00,21.1,12.9,30.07,South,175,0.0,0.0,70,0.00,,SKC,0.00,0.00,VWS V14.00,2013-11-28 06:25:00,
2013-11-28 00:30:00,21.1,13.2,30.07,South,178,1.0,2.0,71,0.00,,SKC,0.00,0.00,VWS V14.00,2013-11-28 06:30:00,
2013-11-28 00:35:00,21.1,13.2,30.07,South,178,0.0,2.0,71,0.00,,SKC,0.00,0.00,VWS V14.00,2013-11-28 06:35:00,
2013-11-28 00:40:00,21.1,13.2,30.07,South,178,0.0,0.0,71,0.00,,SKC,0.00,0.00,VWS V14.00,2013-11-28 06:40:00,
2013-11-28 00:45:00,21.0,13.1,30.07,South,178,0.0,2.0,71,0.00,,SKC,0.00,0.00,VWS V14.00,2013-11-28 06:45:00,
2013-11-28 00:50:00,21.0,13.1,30.07,South,178,2.0,2.0,71,0.00,,SKC,0.00,0.00,VWS V14.00,2013-11-28 06:50:00,
2013-11-28 00:55:00,20.9,13.0,30.07,South,178,0.0,1.0,71,0.00,,SKC,0.00,0.00,VWS V14.00,2013-11-28 06:55:00,
2013-11-28 01:00:00,20.8,12.9,30.07,South,178,0.0,0.0,71,0.00,,SKC,0.00,0.00,VWS V14.00,2013-11-28 07:00:00,
2013-11-28 01:05:00,20.8,12.9,30.07,South,178,0.0,0.0,71,0.00,,SKC,0.00,0.00,VWS V14.00,2013-11-28 07:05:00,
2013-11-28 01:10:00,20.7,12.8,30.07,South,178,0.0,0.0,71,0.00,,SKC,0.00,0.00,VWS V14.00,2013-11-28 07:10:00,
2013-11-28 01:15:00,20.7,12.8,30.08,South,178,0.0,0.0,71,0.00,,SKC,0.00,0.00,VWS V14.00,2013-11-28 07:15:00,
2013-11-28 01:20:00,20.6,13.0,30.08,South,178,0.0,0.0,72,0.00,,SKC,0.00,0.00,VWS V14.00,2013-11-28 07:20:00,
2013-11-28 01:25:00,20.5,12.9,30.08,South,178,0.0,0.0,72,0.00,,SKC,0.00,0.00,VWS V14.00,2013-11-28 07:25:00,
2013-11-28 01:32:00,20.3,12.7,30.08,South,178,0.0,0.0,72,0.00,,SKC,0.00,0.00,VWS V14.00,2013-11-28 07:32:00,
2013-11-28 01:37:00,20.2,12.9,30.08,South,178,0.0,0.0,73,0.00,,SKC,0.00,0.00,VWS V14.00,2013-11-28 07:37:00,
2013-11-28 01:42:00,20.1,12.9,30.09,South,178,0.0,0.0,73,0.00,,SKC,0.00,0.00,VWS V14.00,2013-11-28 07:42:00,
2013-11-28 01:47:00,20.0,13.1,30.09,South,178,0.0,1.0,74,0.00,,SKC,0.00,0.00,VWS V14.00,2013-11-28 07:47:00,
2013-11-28 01:52:00,20.0,13.4,30.09,South,178,0.0,1.0,75,0.00,,SKC,0.00,0.00,VWS V14.00,2013-11-28 07:52:00,
2013-11-28 01:57:00,20.0,13.7,30.09,South,178,0.0,1.0,76,0.00,,SKC,0.00,0.00,VWS V14.00,2013-11-28 07:57:00,
2013-11-28 02:02:00,20.0,13.7,30.09,South,178,1.0,2.0,76,0.00,,SKC,0.00,0.00,VWS V14.00,2013-11-28 08:02:00,
2013-11-28 02:07:00,20.0,13.7,30.10,South,178,0.0,2.0,76,0.00,,SKC,0.00,0.00,VWS V14.00,2013-11-28 08:07:00,
2013-11-28 02:12:00,20.1,14.1,30.10,South,178,0.0,2.0,77,0.00,,SKC,0.00,0.00,VWS V14.00,2013-11-28 08:12:00,
2013-11-28 02:17:00,20.1,14.1,30.11,South,178,1.0,2.0,77,0.00,,SKC,0.00,0.00,VWS V14.00,2013-11-28 08:17:00,
2013-11-28 02:22:00,20.2,13.9,30.11,SW,221,0.0,2.0,76,0.00,,SKC,0.00,0.00,VWS V14.00,2013-11-28 08:22:00,
2013-11-28 02:27:00,20.1,13.8,30.11,SW,221,0.0,1.0,76,0.00,,SKC,0.00,0.00,VWS V14.00,2013-11-28 08:27:00,
2013-11-28 02:32:00,20.1,13.8,30.11,SW,221,1.0,1.0,76,0.00,,SKC,0.00,0.00,VWS V14.00,2013-11-28 08:32:00,
2013-11-28 02:37:00,20.1,13.8,30.11,SW,221,0.0,1.0,76,0.00,,SKC,0.00,0.00,VWS V14.00,2013-11-28 08:37:00,
2013-11-28 02:42:00,20.1,13.8,30.11,SW,221,0.0,1.0,76,0.00,,SKC,0.00,0.00,VWS V14.00,2013-11-28 08:42:00,
2013-11-28 02:47:00,20.0,13.7,30.11,SW,221,1.0,3.0,76,0.00,,SKC,0.00,0.00,VWS V14.00,2013-11-28 08:47:00,
2013-11-28 02:52:00,20.0,13.7,30.12,SW,221,1.0,3.0,76,0.00,,SKC,0.00,0.00,VWS V14.00,2013-11-28 08:52:00,
2013-11-28 02:57:00,20.1,13.8,30.12,SW,221,0.0,0.0,76,0.00,,SKC,0.00,0.00,VWS V14.00,2013-11-28 08:57:00,
2013-11-28 03:02:00,20.1,13.8,30.12,SW,221,0.0,3.0,76,0.00,,SKC,0.00,0.00,VWS V14.00,2013-11-28 09:02:00,
2013-11-28 03:07:00,20.1,13.8,30.12,SW,221,2.0,2.0,76,0.00,,SKC,0.00,0.00,VWS V14.00,2013-11-28 09:07:00,
2013-11-28 03:12:00,20.2,13.9,30.13,SW,222,1.0,3.0,76,0.00,,SKC,0.00,0.00,VWS V14.00,2013-11-28 09:12:00,
2013-11-28 03:17:00,20.3,14.0,30.13,SW,223,2.0,3.0,76,0.00,,SKC,0.00,0.00,VWS V14.00,2013-11-28 09:17:00,
2013-11-28 03:22:00,20.3,14.0,30.13,SW,222,2.0,2.0,76,0.00,,SKC,0.00,0.00,VWS V14.00,2013-11-28 09:22:00,
2013-11-28 03:27:00,20.4,14.1,30.13,SW,223,2.0,3.0,76,0.00,,SKC,0.00,0.00,VWS V14.00,2013-11-28 09:27:00,
2013-11-28 03:32:00,20.5,14.1,30.13,WNW,290,2.0,3.0,76,0.00,,SKC,0.00,0.00,VWS V14.00,2013-11-28 09:32:00,
2013-11-28 03:37:00,20.6,14.2,30.13,WNW,302,1.0,4.0,76,0.00,,SKC,0.00,0.00,VWS V14.00,2013-11-28 09:37:00,
2013-11-28 03:42:00,20.7,14.4,30.14,WNW,302,2.0,3.0,76,0.00,,SKC,0.00,0.00,VWS V14.00,2013-11-28 09:42:00,
2013-11-28 03:48:00,20.7,14.4,30.14,WSW,255,2.0,3.0,76,0.00,,SKC,0.00,0.00,VWS V14.00,2013-11-28 09:48:00,
2013-11-28 03:53:00,20.8,14.1,30.14,WNW,293,2.0,5.0,75,0.00,,SKC,0.00,0.00,VWS V14.00,2013-11-28 09:53:00,
2013-11-28 03:58:00,20.9,14.2,30.14,WNW,303,3.0,5.0,75,0.00,,SKC,0.00,0.00,VWS V14.00,2013-11-28 09:58:00,
2013-11-28 04:03:00,20.9,14.2,30.15,WNW,303,3.0,5.0,75,0.00,,SKC,0.00,0.00,VWS V14.00,2013-11-28 10:03:00,
2013-11-28 04:08:00,21.0,14.0,30.15,WNW,301,3.0,7.0,74,0.00,,SKC,0.00,0.00,VWS V14.00,2013-11-28 10:08:00,
2013-11-28 04:13:00,21.1,14.1,30.15,NW,317,2.0,9.0,74,0.00,,SKC,0.00,0.00,VWS V14.00,2013-11-28 10:13:00,
2013-11-28 04:18:00,21.2,14.2,30.15,North,11,3.0,5.0,74,0.00,,SKC,0.00,0.00,VWS V14.00,2013-11-28 10:18:00,
2013-11-28 04:23:00,21.3,14.3,30.16,NW,315,2.0,6.0,74,0.00,,SKC,0.00,0.00,VWS V14.00,2013-11-28 10:23:00,
2013-11-28 04:28:00,21.4,14.4,30.16,NW,315,4.0,5.0,74,0.00,,SKC,0.00,0.00,VWS V14.00,2013-11-28 10:28:00,
2013-11-28 04:33:00,21.5,14.5,30.16,NW,315,2.0,5.0,74,0.00,,SKC,0.00,0.00,VWS V14.00,2013-11-28 10:33:00,
2013-11-28 04:38:00,21.6,14.3,30.16,NNW,334,4.0,6.0,73,0.00,,SKC,0.00,0.00,VWS V14.00,2013-11-28 10:38:00,
2013-11-28 04:43:00,21.8,14.5,30.16,NNW,344,2.0,7.0,73,0.00,,SKC,0.00,0.00,VWS V14.00,2013-11-28 10:43:00,
2013-11-28 04:48:00,21.9,14.6,30.17,NW,311,2.0,6.0,73,0.00,,SKC,0.00,0.00,VWS V14.00,2013-11-28 10:48:00,
2013-11-28 04:53:00,22.0,14.7,30.17,NW,313,3.0,10.0,73,0.00,,SKC,0.00,0.00,VWS V14.00,2013-11-28 10:53:00,
2013-11-28 04:58:00,22.1,14.5,30.17,NW,305,2.0,9.0,72,0.00,,SKC,0.00,0.00,VWS V14.00,2013-11-28 10:58:00,
2013-11-28 05:03:00,22.1,14.5,30.17,NW,323,3.0,6.0,72,0.00,,SKC,0.00,0.00,VWS V14.00,2013-11-28 11:03:00,
2013-11-28 05:08:00,22.1,14.5,30.17,NW,323,2.0,4.0,72,0.00,,SKC,0.00,0.00,VWS V14.00,2013-11-28 11:08:00,
2013-11-28 05:13:00,22.2,14.6,30.18,NNW,346,4.0,4.0,72,0.00,,SKC,0.00,0.00,VWS V14.00,2013-11-28 11:13:00,
2013-11-28 05:18:00,22.2,14.6,30.17,NW,321,3.0,4.0,72,0.00,,SKC,0.00,0.00,VWS V14.00,2013-11-28 11:18:00,
2013-11-28 05:23:00,22.2,14.6,30.18,NW,321,3.0,5.0,72,0.00,,SKC,0.00,0.00,VWS V14.00,2013-11-28 11:23:00,
2013-11-28 05:28:00,22.2,14.6,30.18,NW,322,3.0,5.0,72,0.00,,SKC,0.00,0.00,VWS V14.00,2013-11-28 11:28:00,
2013-11-28 05:33:00,22.1,14.5,30.18,NW,319,2.0,4.0,72,0.00,,SKC,0.00,0.00,VWS V14.00,2013-11-28 11:33:00,
2013-11-28 05:38:00,22.1,14.5,30.18,NW,311,3.0,5.0,72,0.00,,SKC,0.00,0.00,VWS V14.00,2013-11-28 11:38:00,
2013-11-28 05:43:00,22.0,14.4,30.18,NW,319,4.0,5.0,72,0.00,,SKC,0.00,0.00,VWS V14.00,2013-11-28 11:43:00,
2013-11-28 05:48:00,22.0,14.4,30.19,NNW,342,2.0,5.0,72,0.00,,SKC,0.00,0.00,VWS V14.00,2013-11-28 11:48:00,
2013-11-28 05:53:00,22.0,14.7,30.19,NNW,332,3.0,6.0,73,0.00,,SKC,0.00,0.00,VWS V14.00,2013-11-28 11:53:00,
2013-11-28 05:58:00,21.9,14.6,30.19,NW,326,3.0,7.0,73,0.00,,SKC,0.00,0.00,VWS V14.00,2013-11-28 11:58:00,
2013-11-28 06:03:00,22.0,14.7,30.19,NNW,327,3.0,4.0,73,0.00,,SKC,0.00,0.00,VWS V14.00,2013-11-28 12:03:00,
2013-11-28 06:08:00,22.0,14.7,30.20,NW,324,2.0,6.0,73,0.00,,SKC,0.00,0.00,VWS V14.00,2013-11-28 12:08:00,
2013-11-28 06:13:00,22.0,14.7,30.20,NW,321,2.0,6.0,73,0.00,,SKC,0.00,0.00,VWS V14.00,2013-11-28 12:13:00,
2013-11-28 06:18:00,22.0,14.7,30.20,NW,319,6.0,7.0,73,0.00,,SKC,0.00,0.00,VWS V14.00,2013-11-28 12:18:00,
2013-11-28 06:23:00,22.0,14.7,30.21,NW,310,3.0,6.0,73,0.00,,SKC,0.00,0.00,VWS V14.00,2013-11-28 12:23:00,
2013-11-28 06:28:00,22.0,15.0,30.21,NW,310,4.0,4.0,74,0.00,,SKC,0.00,0.00,VWS V14.00,2013-11-28 12:28:00,
2013-11-28 06:33:00,22.0,15.0,30.21,NW,320,2.0,6.0,74,0.00,,SKC,0.00,0.00,VWS V14.00,2013-11-28 12:33:00,
2013-11-28 06:38:00,21.9,14.9,30.21,NW,321,4.0,5.0,74,0.00,,SKC,0.00,0.00,VWS V14.00,2013-11-28 12:38:00,
2013-11-28 06:43:00,21.9,14.9,30.21,North,355,3.0,6.0,74,0.00,,SKC,0.00,0.00,VWS V14.00,2013-11-28 12:43:00,
2013-11-28 06:48:00,21.9,14.9,30.22,WNW,282,3.0,5.0,74,0.00,,SKC,0.00,0.00,VWS V14.00,2013-11-28 12:48:00,
2013-11-28 06:53:00,21.8,14.8,30.22,NW,315,4.0,5.0,74,0.00,,SKC,0.00,0.00,VWS V14.00,2013-11-28 12:53:00,
2013-11-28 06:58:00,21.8,14.8,30.23,NW,311,3.0,6.0,74,0.00,,SKC,0.00,0.00,VWS V14.00,2013-11-28 12:58:00,
2013-11-28 07:03:00,21.7,14.7,30.23,NW,311,4.0,11.0,74,0.00,,SKC,0.00,0.00,VWS V14.00,2013-11-28 13:03:00,
2013-11-28 07:08:00,21.7,15.0,30.23,NW,325,1.0,5.0,75,0.00,,SKC,0.00,0.00,VWS V14.00,2013-11-28 13:08:00,
2013-11-28 07:13:00,21.6,14.9,30.23,NW,317,2.0,5.0,75,0.00,,SKC,0.00,0.00,VWS V14.00,2013-11-28 13:13:00,
2013-11-28 07:18:00,21.6,15.2,30.23,NW,317,2.0,5.0,76,0.00,,SKC,0.00,0.00,VWS V14.00,2013-11-28 13:18:00,
2013-11-28 07:23:00,21.5,15.1,30.24,NW,317,2.0,4.0,76,0.00,,SKC,0.00,0.00,VWS V14.00,2013-11-28 13:23:00,
2013-11-28 07:28:00,21.5,15.1,30.24,NNW,331,2.0,5.0,76,0.00,,SKC,0.00,0.00,VWS V14.00,2013-11-28 13:28:00,
2013-11-28 07:33:00,21.5,15.4,30.24,NW,309,3.0,5.0,77,0.00,,SKC,0.00,0.00,VWS V14.00,2013-11-28 13:33:00,
2013-11-28 07:38:00,21.5,15.4,30.24,NW,315,5.0,9.0,77,0.00,,SKC,0.00,5.00,VWS V14.00,2013-11-28 13:38:00,
2013-11-28 07:43:00,21.4,15.3,30.24,NNW,329,3.0,9.0,77,0.00,,SKC,0.00,7.00,VWS V14.00,2013-11-28 13:43:00,
2013-11-28 07:48:00,21.4,15.3,30.24,NNW,334,3.0,6.0,77,0.00,,SKC,0.00,11.00,VWS V14.00,2013-11-28 13:48:00,
2013-11-28 07:53:00,21.4,15.6,30.25,NW,325,4.0,5.0,78,0.00,,SKC,0.00,14.00,VWS V14.00,2013-11-28 13:53:00,
2013-11-28 07:58:00,21.4,15.6,30.25,NW,321,2.0,6.0,78,0.00,,SKC,0.00,18.00,VWS V14.00,2013-11-28 13:58:00,
2013-11-28 08:03:00,21.4,15.6,30.25,NW,325,3.0,6.0,78,0.00,,SKC,0.00,12.00,VWS V14.00,2013-11-28 14:03:00,
2013-11-28 08:08:00,21.4,15.9,30.25,NNW,329,2.0,6.0,79,0.00,,SKC,0.00,11.00,VWS V14.00,2013-11-28 14:08:00,
2013-11-28 08:13:00,21.4,15.9,30.26,NNW,327,3.0,6.0,79,0.00,,SKC,0.00,16.00,VWS V14.00,2013-11-28 14:13:00,
2013-11-28 08:18:00,21.5,16.0,30.26,NW,324,3.0,5.0,79,0.00,,SKC,0.00,21.00,VWS V14.00,2013-11-28 14:18:00,
2013-11-28 08:23:00,21.5,16.3,30.26,West,275,6.0,6.0,80,0.00,,SKC,0.00,23.00,VWS V14.00,2013-11-28 14:23:00,
2013-11-28 08:28:00,21.6,16.1,30.26,NNW,333,3.0,7.0,79,0.00,,SKC,0.00,28.00,VWS V14.00,2013-11-28 14:28:00,
2013-11-28 08:33:00,21.6,16.1,30.26,NW,321,4.0,9.0,79,0.00,,SKC,0.00,40.00,VWS V14.00,2013-11-28 14:33:00,
2013-11-28 08:38:00,21.6,16.1,30.27,NW,325,5.0,6.0,79,0.00,,SKC,0.00,51.00,VWS V14.00,2013-11-28 14:38:00,
2013-11-28 08:43:00,21.6,16.1,30.27,NNW,331,3.0,12.0,79,0.00,,SKC,0.00,58.00,VWS V14.00,2013-11-28 14:43:00,
2013-11-28 08:48:00,21.6,16.1,30.28,WNW,300,3.0,10.0,79,0.00,,SKC,0.00,51.00,VWS V14.00,2013-11-28 14:48:00,
2013-11-28 08:53:00,21.6,16.1,30.28,NNW,328,3.0,7.0,79,0.00,,SKC,0.00,58.00,VWS V14.00,2013-11-28 14:53:00,
2013-11-28 08:58:00,21.5,15.4,30.28,North,355,4.0,6.0,77,0.00,,SKC,0.00,54.00,VWS V14.00,2013-11-28 14:58:00,
2013-11-28 09:03:00,21.3,15.2,30.29,NNW,336,3.0,6.0,77,0.00,,SKC,0.00,144.00,VWS V14.00,2013-11-28 15:03:00,
2013-11-28 09:08:00,21.2,15.1,30.29,NNW,338,3.0,6.0,77,0.00,,SKC,0.00,158.00,VWS V14.00,2013-11-28 15:08:00,
2013-11-28 09:13:00,21.2,14.8,30.29,NNW,340,1.0,10.0,76,0.00,,SKC,0.00,169.00,VWS V14.00,2013-11-28 15:13:00,
2013-11-28 09:18:00,21.3,15.2,30.30,NW,325,3.0,6.0,77,0.00,,SKC,0.00,218.00,VWS V14.00,2013-11-28 15:18:00,
2013-11-28 09:23:00,21.6,15.5,30.30,WNW,297,2.0,6.0,77,0.00,,SKC,0.00,134.00,VWS V14.00,2013-11-28 15:23:00,
2013-11-28 09:28:00,21.9,15.8,30.30,NW,317,3.0,6.0,77,0.00,,SKC,0.00,111.00,VWS V14.00,2013-11-28 15:28:00,
2013-11-28 09:33:00,22.0,15.6,30.30,NNE,22,7.0,10.0,76,0.00,,SKC,0.00,109.00,VWS V14.00,2013-11-28 15:33:00,
2013-11-28 09:38:00,21.8,15.1,30.31,NW,322,2.0,7.0,75,0.00,,SKC,0.00,102.00,VWS V14.00,2013-11-28 15:38:00,
2013-11-28 09:43:00,21.5,14.8,30.31,NNW,332,2.0,12.0,75,0.00,,SKC,0.00,125.00,VWS V14.00,2013-11-28 15:43:00,
2013-11-28 09:48:00,21.3,14.6,30.31,NW,315,2.0,9.0,75,0.00,,SKC,0.00,127.00,VWS V14.00,2013-11-28 15:48:00,
2013-11-28 09:53:00,21.3,14.9,30.31,WNW,295,3.0,6.0,76,0.00,,SKC,0.00,151.00,VWS V14.00,2013-11-28 15:53:00,
2013-11-28 09:58:00,21.2,14.8,30.31,NW,319,6.0,6.0,76,0.00,,SKC,0.00,156.00,VWS V14.00,2013-11-28 15:58:00,
2013-11-28 10:03:00,21.2,14.5,30.32,NW,309,2.0,11.0,75,0.00,,SKC,0.00,155.00,VWS V14.00,2013-11-28 16:03:00,
2013-11-28 10:08:00,21.2,14.8,30.32,North,349,0.0,5.0,76,0.00,,SKC,0.00,156.00,VWS V14.00,2013-11-28 16:08:00,
2013-11-28 10:13:00,21.3,14.6,30.32,NW,321,5.0,10.0,75,0.00,,SKC,0.00,139.00,VWS V14.00,2013-11-28 16:13:00,
2013-11-28 10:18:00,21.3,14.6,30.33,NNW,339,4.0,7.0,75,0.00,,SKC,0.00,322.00,VWS V14.00,2013-11-28 16:18:00,
2013-11-28 10:23:00,21.4,14.7,30.33,NNW,330,3.0,6.0,75,0.00,,SKC,0.00,123.00,VWS V14.00,2013-11-28 16:23:00,
2013-11-28 10:28:00,21.6,14.9,30.33,NW,317,4.0,9.0,75,0.00,,SKC,0.00,417.00,VWS V14.00,2013-11-28 16:28:00,
2013-11-28 10:33:00,21.9,14.9,30.33,NW,311,5.0,6.0,74,0.00,,SKC,0.00,162.00,VWS V14.00,2013-11-28 16:33:00,
2013-11-28 10:38:00,22.0,14.7,30.33,NW,325,5.0,6.0,73,0.00,,SKC,0.00,132.00,VWS V14.00,2013-11-28 16:38:00,
2013-11-28 10:43:00,22.1,15.1,30.33,NNW,327,3.0,5.0,74,0.00,,SKC,0.00,353.00,VWS V14.00,2013-11-28 16:43:00,
2013-11-28 10:48:00,22.2,14.9,30.33,NNW,327,3.0,6.0,73,0.00,,SKC,0.00,114.00,VWS V14.00,2013-11-28 16:48:00,
2013-11-28 10:53:00,22.2,14.6,30.33,NW,315,4.0,7.0,72,0.00,,SKC,0.00,114.00,VWS V14.00,2013-11-28 16:53:00,
2013-11-28 10:58:00,22.2,14.6,30.33,NW,320,1.0,6.0,72,0.00,,SKC,0.00,406.00,VWS V14.00,2013-11-28 16:58:00,
2013-11-28 11:03:00,22.3,14.7,30.33,NNW,337,4.0,5.0,72,0.00,,SKC,0.00,137.00,VWS V14.00,2013-11-28 17:03:00,
2013-11-28 11:08:00,22.4,14.4,30.33,NNW,331,6.0,7.0,71,0.00,,SKC,0.00,148.00,VWS V14.00,2013-11-28 17:08:00,
2013-11-28 11:13:00,22.4,14.1,30.33,WNW,297,3.0,6.0,70,0.00,,SKC,0.00,348.00,VWS V14.00,2013-11-28 17:13:00,
2013-11-28 11:18:00,22.5,14.5,30.33,NNW,329,5.0,5.0,71,0.00,,SKC,0.00,404.00,VWS V14.00,2013-11-28 17:18:00,
2013-11-28 11:23:00,22.7,14.4,30.33,NW,319,2.0,8.0,70,0.00,,SKC,0.00,429.00,VWS V14.00,2013-11-28 17:23:00,
2013-11-28 11:28:00,22.7,14.4,30.34,NW,314,6.0,7.0,70,0.00,,SKC,0.00,204.00,VWS V14.00,2013-11-28 17:28:00,
2013-11-28 11:33:00,22.6,14.0,30.34,NNW,331,3.0,10.0,69,0.00,,SKC,0.00,160.00,VWS V14.00,2013-11-28 17:33:00,
2013-11-28 11:38:00,22.5,13.6,30.34,NNW,331,3.0,9.0,68,0.00,,SKC,0.00,422.00,VWS V14.00,2013-11-28 17:38:00,
2013-11-28 11:43:00,22.6,14.0,30.34,NNW,330,4.0,6.0,69,0.00,,SKC,0.00,413.00,VWS V14.00,2013-11-28 17:43:00,
2013-11-28 11:48:00,22.7,13.7,30.34,NNW,328,3.0,7.0,68,0.00,,SKC,0.00,418.00,VWS V14.00,2013-11-28 17:48:00,
2013-11-28 11:53:00,22.8,13.8,30.34,NNW,328,4.0,7.0,68,0.00,,SKC,0.00,401.00,VWS V14.00,2013-11-28 17:53:00,
2013-11-28 11:58:00,22.7,13.7,30.34,North,355,2.0,6.0,68,0.00,,SKC,0.00,448.00,VWS V14.00,2013-11-28 17:58:00,
2013-11-28 12:03:00,22.8,14.2,30.34,NNW,334,3.0,6.0,69,0.00,,SKC,0.00,381.00,VWS V14.00,2013-11-28 18:03:00,
2013-11-28 12:08:00,23.0,14.4,30.34,NW,323,3.0,5.0,69,0.00,,SKC,0.00,452.00,VWS V14.00,2013-11-28 18:08:00,
2013-11-28 12:13:00,23.1,13.8,30.34,NW,325,5.0,7.0,67,0.00,,SKC,0.00,90.00,VWS V14.00,2013-11-28 18:13:00,
2013-11-28 12:18:00,23.0,13.7,30.34,NNW,333,1.0,7.0,67,0.00,,SKC,0.00,378.00,VWS V14.00,2013-11-28 18:18:00,
2013-11-28 12:23:00,23.1,13.8,30.34,NNW,333,5.0,7.0,67,0.00,,SKC,0.00,357.00,VWS V14.00,2013-11-28 18:23:00,
2013-11-28 12:28:00,23.1,13.4,30.34,NNW,338,2.0,7.0,66,0.00,,SKC,0.00,392.00,VWS V14.00,2013-11-28 18:28:00,
2013-11-28 12:33:00,23.3,13.6,30.34,NNW,333,2.0,7.0,66,0.00,,SKC,0.00,309.00,VWS V14.00,2013-11-28 18:33:00,
2013-11-28 12:38:00,23.4,13.4,30.34,NNW,342,4.0,6.0,65,0.00,,SKC,0.00,174.00,VWS V14.00,2013-11-28 18:38:00,
2013-11-28 12:43:00,23.5,13.8,30.34,NNW,328,4.0,7.0,66,0.00,,SKC,0.00,394.00,VWS V14.00,2013-11-28 18:43:00,
2013-11-28 12:48:00,23.6,13.6,30.34,NNE,33,4.0,6.0,65,0.00,,SKC,0.00,397.00,VWS V14.00,2013-11-28 18:48:00,
2013-11-28 12:53:00,23.6,13.6,30.34,WNW,298,4.0,6.0,65,0.00,,SKC,0.00,380.00,VWS V14.00,2013-11-28 18:53:00,
2013-11-28 12:58:00,23.9,13.5,30.34,NNW,327,3.0,7.0,64,0.00,,SKC,0.00,371.00,VWS V14.00,2013-11-28 18:58:00,
2013-11-28 13:03:00,24.0,13.6,30.34,NW,326,1.0,9.0,64,0.00,,SKC,0.00,357.00,VWS V14.00,2013-11-28 19:03:00,
2013-11-28 13:08:00,24.2,13.8,30.35,NNW,327,4.0,6.0,64,0.00,,SKC,0.00,323.00,VWS V14.00,2013-11-28 19:08:00,
2013-11-28 13:13:00,24.2,13.4,30.35,NE,44,4.0,6.0,63,0.00,,SKC,0.00,346.00,VWS V14.00,2013-11-28 19:13:00,
2013-11-28 13:18:00,24.3,13.2,30.35,NNW,327,2.0,6.0,62,0.00,,SKC,0.00,353.00,VWS V14.00,2013-11-28 19:18:00,
2013-11-28 13:23:00,24.2,13.4,30.35,NW,311,2.0,7.0,63,0.00,,SKC,0.00,306.00,VWS V14.00,2013-11-28 19:23:00,
2013-11-28 13:28:00,24.3,13.2,30.35,NW,319,2.0,6.0,62,0.00,,SKC,0.00,281.00,VWS V14.00,2013-11-28 19:28:00,
2013-11-28 13:33:00,24.3,13.2,30.35,NNW,345,4.0,9.0,62,0.00,,SKC,0.00,322.00,VWS V14.00,2013-11-28 19:33:00,
2013-11-28 13:38:00,24.4,12.9,30.35,NW,315,3.0,5.0,61,0.00,,SKC,0.00,316.00,VWS V14.00,2013-11-28 19:38:00,
2013-11-28 13:43:00,24.6,13.4,30.35,NW,324,5.0,5.0,62,0.00,,SKC,0.00,306.00,VWS V14.00,2013-11-28 19:43:00,
2013-11-28 13:48:00,24.7,13.2,30.35,NNW,342,3.0,6.0,61,0.00,,SKC,0.00,299.00,VWS V14.00,2013-11-28 19:48:00,
2013-11-28 13:53:00,24.7,13.2,30.36,NW,321,3.0,7.0,61,0.00,,SKC,0.00,292.00,VWS V14.00,2013-11-28 19:53:00,
2013-11-28 13:58:00,24.8,12.9,30.36,NNW,339,4.0,5.0,60,0.00,,SKC,0.00,281.00,VWS V14.00,2013-11-28 19:58:00,
2013-11-28 14:03:00,24.9,13.4,30.36,NNW,341,4.0,7.0,61,0.00,,SKC,0.00,272.00,VWS V14.00,2013-11-28 20:03:00,
2013-11-28 14:08:00,24.8,12.5,30.37,NNW,346,2.0,5.0,59,0.00,,SKC,0.00,267.00,VWS V14.00,2013-11-28 20:08:00,
2013-11-28 14:13:00,24.9,13.0,30.36,North,350,3.0,5.0,60,0.00,,SKC,0.00,253.00,VWS V14.00,2013-11-28 20:13:00,
2013-11-28 14:18:00,24.9,13.0,30.36,North,9,3.0,4.0,60,0.00,,SKC,0.00,241.00,VWS V14.00,2013-11-28 20:18:00,
2013-11-28 14:23:00,25.1,13.6,30.36,NNW,330,1.0,7.0,61,0.00,,SKC,0.00,227.00,VWS V14.00,2013-11-28 20:23:00,
2013-11-28 14:28:00,25.1,13.2,30.36,NW,309,4.0,5.0,60,0.00,,SKC,0.00,216.00,VWS V14.00,2013-11-28 20:28:00,
2013-11-28 14:33:00,25.0,12.7,30.37,NNW,329,2.0,9.0,59,0.00,,SKC,0.00,206.00,VWS V14.00,2013-11-28 20:33:00,
2013-11-28 14:38:00,24.9,13.0,30.36,NW,325,4.0,9.0,60,0.00,,SKC,0.00,193.00,VWS V14.00,2013-11-28 20:38:00,
2013-11-28 14:43:00,24.8,13.3,30.37,NW,309,4.0,5.0,61,0.00,,SKC,0.00,181.00,VWS V14.00,2013-11-28 20:43:00,
2013-11-28 14:48:00,24.8,13.3,30.37,NW,323,1.0,5.0,61,0.00,,SKC,0.00,169.00,VWS V14.00,2013-11-28 20:48:00,
2013-11-28 14:53:00,24.8,13.6,30.37,NW,323,2.0,3.0,62,0.00,,SKC,0.00,156.00,VWS V14.00,2013-11-28 20:53:00,
2013-11-28 14:58:00,24.7,13.2,30.37,NW,322,4.0,6.0,61,0.00,,SKC,0.00,144.00,VWS V14.00,2013-11-28 20:58:00,
2013-11-28 15:03:00,24.7,13.2,30.38,NNE,15,5.0,7.0,61,0.00,,SKC,0.00,130.00,VWS V14.00,2013-11-28 21:03:00,
2013-11-28 15:08:00,24.6,12.7,30.38,North,355,2.0,5.0,60,0.00,,SKC,0.00,123.00,VWS V14.00,2013-11-28 21:08:00,
2013-11-28 15:13:00,24.7,13.2,30.37,North,355,1.0,3.0,61,0.00,,SKC,0.00,109.00,VWS V14.00,2013-11-28 21:13:00,
2013-11-28 15:18:00,24.7,12.8,30.38,NNW,339,6.0,7.0,60,0.00,,SKC,0.00,97.00,VWS V14.00,2013-11-28 21:18:00,
2013-11-28 15:23:00,24.6,13.1,30.38,NNW,339,3.0,6.0,61,0.00,,SKC,0.00,86.00,VWS V14.00,2013-11-28 21:23:00,
2013-11-28 15:28:00,24.6,13.1,30.39,WNW,302,4.0,5.0,61,0.00,,SKC,0.00,76.00,VWS V14.00,2013-11-28 21:28:00,
2013-11-28 15:33:00,24.5,13.0,30.39,NE,42,0.0,4.0,61,0.00,,SKC,0.00,65.00,VWS V14.00,2013-11-28 21:33:00,
2013-11-28 15:38:00,24.5,13.0,30.39,North,11,2.0,8.0,61,0.00,,SKC,0.00,54.00,VWS V14.00,2013-11-28 21:38:00,
2013-11-28 15:43:00,24.4,12.5,30.40,WNW,300,2.0,5.0,60,0.00,,SKC,0.00,47.00,VWS V14.00,2013-11-28 21:43:00,
2013-11-28 15:48:00,24.2,12.7,30.40,NNW,328,2.0,4.0,61,0.00,,SKC,0.00,39.00,VWS V14.00,2013-11-28 21:48:00,
2013-11-28 15:53:00,24.0,12.5,30.40,NW,310,1.0,4.0,61,0.00,,SKC,0.00,32.00,VWS V14.00,2013-11-28 21:53:00,
2013-11-28 15:58:00,23.9,12.4,30.40,West,271,3.0,4.0,61,0.00,,SKC,0.00,28.00,VWS V14.00,2013-11-28 21:58:00,
2013-11-28 16:03:00,23.7,12.2,30.40,WNW,286,1.0,3.0,61,0.00,,SKC,0.00,25.00,VWS V14.00,2013-11-28 22:03:00,
2013-11-28 16:08:00,23.6,12.5,30.40,WNW,289,1.0,5.0,62,0.00,,SKC,0.00,23.00,VWS V14.00,2013-11-28 22:08:00,
2013-11-28 16:13:00,23.4,12.3,30.41,NNW,342,2.0,4.0,62,0.00,,SKC,0.00,19.00,VWS V14.00,2013-11-28 22:13:00,
2013-11-28 16:18:00,23.2,12.5,30.41,NNW,342,1.0,3.0,63,0.00,,SKC,0.00,18.00,VWS V14.00,2013-11-28 22:18:00,
2013-11-28 16:23:00,23.0,12.3,30.41,NNW,342,2.0,2.0,63,0.00,,SKC,0.00,14.00,VWS V14.00,2013-11-28 22:23:00,
2013-11-28 16:28:00,22.8,12.5,30.41,NNW,342,1.0,2.0,64,0.00,,SKC,0.00,11.00,VWS V14.00,2013-11-28 22:28:00,
2013-11-28 16:33:00,22.5,12.2,30.41,NNW,342,0.0,2.0,64,0.00,,SKC,0.00,9.00,VWS V14.00,2013-11-28 22:33:00,
2013-11-28 16:38:00,22.3,12.0,30.41,NNW,342,0.0,2.0,64,0.00,,SKC,0.00,5.00,VWS V14.00,2013-11-28 22:38:00,
2013-11-28 16:43:00,22.0,12.1,30.42,NNW,342,1.0,2.0,65,0.00,,SKC,0.00,0.00,VWS V14.00,2013-11-28 22:43:00,
2013-11-28 16:48:00,21.7,11.8,30.42,NNW,342,1.0,2.0,65,0.00,,SKC,0.00,0.00,VWS V14.00,2013-11-28 22:48:00,
2013-11-28 16:53:00,21.4,11.8,30.42,NNW,339,0.0,4.0,66,0.00,,SKC,0.00,0.00,VWS V14.00,2013-11-28 22:53:00,
2013-11-28 16:58:00,21.2,11.6,30.42,NNW,339,0.0,0.0,66,0.00,,SKC,0.00,0.00,VWS V14.00,2013-11-28 22:58:00,
2013-11-28 17:03:00,20.9,11.3,30.42,NNW,339,0.0,0.0,66,0.00,,SKC,0.00,0.00,VWS V14.00,2013-11-28 23:03:00,
2013-11-28 17:08:00,20.7,11.1,30.43,NNW,339,0.0,0.0,66,0.00,,SKC,0.00,0.00,VWS V14.00,2013-11-28 23:08:00,
2013-11-28 17:13:00,20.5,11.3,30.43,NNW,339,0.0,0.0,67,0.00,,SKC,0.00,0.00,VWS V14.00,2013-11-28 23:13:00,
2013-11-28 17:18:00,20.2,11.0,30.43,NNW,339,0.0,0.0,67,0.00,,SKC,0.00,0.00,VWS V14.00,2013-11-28 23:18:00,
2013-11-28 17:23:00,20.0,10.8,30.43,NNW,339,0.0,0.0,67,0.00,,SKC,0.00,0.00,VWS V14.00,2013-11-28 23:23:00,
2013-11-28 17:28:00,19.8,10.6,30.44,NNW,339,0.0,0.0,67,0.00,,SKC,0.00,0.00,VWS V14.00,2013-11-28 23:28:00,
2013-11-28 17:33:00,19.5,10.3,30.43,NNW,339,0.0,0.0,67,0.00,,SKC,0.00,0.00,VWS V14.00,2013-11-28 23:33:00,
2013-11-28 17:38:00,19.1,10.0,30.44,NNW,339,0.0,0.0,67,0.00,,SKC,0.00,0.00,VWS V14.00,2013-11-28 23:38:00,
2013-11-28 17:43:00,18.7,9.9,30.44,NNW,339,0.0,0.0,68,0.00,,SKC,0.00,0.00,VWS V14.00,2013-11-28 23:43:00,
2013-11-28 17:48:00,18.4,9.6,30.44,NNW,339,0.0,0.0,68,0.00,,SKC,0.00,0.00,VWS V14.00,2013-11-28 23:48:00,
2013-11-28 17:53:00,18.1,9.3,30.44,NNW,339,0.0,0.0,68,0.00,,SKC,0.00,0.00,VWS V14.00,2013-11-28 23:53:00,
2013-11-28 17:58:00,17.8,9.4,30.44,NNW,339,0.0,0.0,69,0.00,,SKC,0.00,0.00,VWS V14.00,2013-11-28 23:58:00,
2013-11-28 18:03:00,17.5,9.1,30.44,NNW,339,0.0,0.0,69,0.00,,SKC,0.00,0.00,VWS V14.00,2013-11-29 00:03:00,
2013-11-28 18:08:00,17.2,9.1,30.45,NNW,339,0.0,0.0,70,0.00,,SKC,0.00,0.00,VWS V14.00,2013-11-29 00:08:00,
2013-11-28 18:13:00,16.8,9.0,30.45,NNW,339,0.0,0.0,71,0.00,,SKC,0.00,0.00,VWS V14.00,2013-11-29 00:13:00,
2013-11-28 18:18:00,16.5,8.8,30.45,NNW,339,0.0,0.0,71,0.00,,SKC,0.00,0.00,VWS V14.00,2013-11-29 00:18:00,
2013-11-28 18:23:00,16.2,8.8,30.45,NNW,339,0.0,0.0,72,0.00,,SKC,0.00,0.00,VWS V14.00,2013-11-29 00:23:00,
2013-11-28 18:28:00,16.0,8.6,30.45,NNW,339,0.0,0.0,72,0.00,,SKC,0.00,0.00,VWS V14.00,2013-11-29 00:28:00,
2013-11-28 18:33:00,15.8,8.7,30.45,NNW,339,0.0,0.0,73,0.00,,SKC,0.00,0.00,VWS V14.00,2013-11-29 00:33:00,
2013-11-28 18:38:00,15.6,8.5,30.44,NNW,339,0.0,0.0,73,0.00,,SKC,0.00,0.00,VWS V14.00,2013-11-29 00:38:00,
2013-11-28 18:43:00,15.4,8.6,30.45,NNW,339,0.0,0.0,74,0.00,,SKC,0.00,0.00,VWS V14.00,2013-11-29 00:43:00,
2013-11-28 18:48:00,15.3,8.8,30.45,NNW,339,0.0,0.0,75,0.00,,SKC,0.00,0.00,VWS V14.00,2013-11-29 00:48:00,
2013-11-28 18:53:00,15.2,8.7,30.45,NNW,339,0.0,0.0,75,0.00,,SKC,0.00,0.00,VWS V14.00,2013-11-29 00:53:00,
2013-11-28 18:58:00,15.1,8.6,30.45,NNW,339,0.0,0.0,75,0.00,,SKC,0.00,0.00,VWS V14.00,2013-11-29 00:58:00,
2013-11-28 19:03:00,15.0,8.8,30.45,NNW,339,0.0,0.0,76,0.00,,SKC,0.00,0.00,VWS V14.00,2013-11-29 01:03:00,
2013-11-28 19:08:00,14.9,8.7,30.45,NNW,339,0.0,0.0,76,0.00,,SKC,0.00,0.00,VWS V14.00,2013-11-29 01:08:00,
2013-11-28 19:13:00,14.8,8.6,30.45,NNW,339,0.0,0.0,76,0.00,,SKC,0.00,0.00,VWS V14.00,2013-11-29 01:13:00,
2013-11-28 19:18:00,14.6,8.4,30.45,NNW,339,0.0,0.0,76,0.00,,SKC,0.00,0.00,VWS V14.00,2013-11-29 01:18:00,
2013-11-28 19:23:00,14.4,8.2,30.45,NNW,339,0.0,0.0,76,0.00,,SKC,0.00,0.00,VWS V14.00,2013-11-29 01:23:00,
2013-11-28 19:28:00,14.3,8.1,30.45,NNW,339,0.0,0.0,76,0.00,,SKC,0.00,0.00,VWS V14.00,2013-11-29 01:28:00,
2013-11-28 19:33:00,14.1,8.2,30.45,NNW,339,0.0,0.0,77,0.00,,SKC,0.00,0.00,VWS V14.00,2013-11-29 01:33:00,
2013-11-28 19:38:00,14.0,8.7,30.45,NNW,339,0.0,0.0,79,0.00,,SKC,0.00,0.00,VWS V14.00,2013-11-29 01:38:00,
2013-11-28 19:43:00,13.9,8.6,30.45,NNW,339,0.0,0.0,79,0.00,,SKC,0.00,0.00,VWS V14.00,2013-11-29 01:43:00,
2013-11-28 19:48:00,13.8,8.5,30.45,NNW,339,0.0,0.0,79,0.00,,SKC,0.00,0.00,VWS V14.00,2013-11-29 01:48:00,
2013-11-28 19:53:00,13.7,8.7,30.45,NNW,339,0.0,0.0,80,0.00,,SKC,0.00,0.00,VWS V14.00,2013-11-29 01:53:00,
2013-11-28 19:58:00,13.6,8.6,30.45,NNW,339,0.0,0.0,80,0.00,,SKC,0.00,0.00,VWS V14.00,2013-11-29 01:58:00,
2013-11-28 20:03:00,13.5,8.5,30.45,NNW,339,0.0,0.0,80,0.00,,SKC,0.00,0.00,VWS V14.00,2013-11-29 02:03:00,
2013-11-28 20:08:00,13.4,8.4,30.45,NNW,339,0.0,0.0,80,0.00,,SKC,0.00,0.00,VWS V14.00,2013-11-29 02:08:00,
2013-11-28 20:13:00,13.4,8.4,30.45,NNW,339,0.0,0.0,80,0.00,,SKC,0.00,0.00,VWS V14.00,2013-11-29 02:13:00,
2013-11-28 20:18:00,13.3,8.3,30.46,NNW,339,0.0,0.0,80,0.00,,SKC,0.00,0.00,VWS V14.00,2013-11-29 02:18:00,
2013-11-28 20:23:00,13.2,8.2,30.46,NNW,339,0.0,0.0,80,0.00,,SKC,0.00,0.00,VWS V14.00,2013-11-29 02:23:00,
2013-11-28 20:28:00,13.1,8.1,30.46,NNW,339,0.0,0.0,80,0.00,,SKC,0.00,0.00,VWS V14.00,2013-11-29 02:28:00,
2013-11-28 20:33:00,12.9,7.9,30.46,NNW,339,0.0,0.0,80,0.00,,SKC,0.00,0.00,VWS V14.00,2013-11-29 02:33:00,
2013-11-28 20:38:00,12.7,7.7,30.46,NNW,339,0.0,0.0,80,0.00,,SKC,0.00,0.00,VWS V14.00,2013-11-29 02:38:00,
2013-11-28 20:43:00,12.7,8.0,30.46,NNW,339,0.0,0.0,81,0.00,,SKC,0.00,0.00,VWS V14.00,2013-11-29 02:43:00,
2013-11-28 20:48:00,12.6,7.9,30.47,NNW,339,0.0,0.0,81,0.00,,SKC,0.00,0.00,VWS V14.00,2013-11-29 02:48:00,
2013-11-28 20:53:00,12.6,7.9,30.47,NNW,339,0.0,0.0,81,0.00,,SKC,0.00,0.00,VWS V14.00,2013-11-29 02:53:00,
2013-11-28 20:58:00,12.5,7.8,30.47,NNW,339,0.0,0.0,81,0.00,,SKC,0.00,0.00,VWS V14.00,2013-11-29 02:58:00,
2013-11-28 21:03:00,12.5,8.1,30.47,NNW,339,0.0,0.0,82,0.00,,SKC,0.00,0.00,VWS V14.00,2013-11-29 03:03:00,
2013-11-28 21:09:00,12.5,8.1,30.47,NNW,339,0.0,0.0,82,0.00,,SKC,0.00,0.00,VWS V14.00,2013-11-29 03:09:00,
2013-11-28 21:14:00,12.5,7.8,30.48,NNW,339,0.0,0.0,81,0.00,,SKC,0.00,0.00,VWS V14.00,2013-11-29 03:14:00,
2013-11-28 21:19:00,12.5,8.1,30.48,NNW,339,0.0,0.0,82,0.00,,SKC,0.00,0.00,VWS V14.00,2013-11-29 03:19:00,
2013-11-28 21:24:00,12.4,8.0,30.48,NNW,339,0.0,0.0,82,0.00,,SKC,0.00,0.00,VWS V14.00,2013-11-29 03:24:00,
2013-11-28 21:29:00,12.3,7.9,30.48,NNW,339,0.0,0.0,82,0.00,,SKC,0.00,0.00,VWS V14.00,2013-11-29 03:29:00,
2013-11-28 21:34:00,12.3,7.9,30.48,NNW,339,0.0,0.0,82,0.00,,SKC,0.00,0.00,VWS V14.00,2013-11-29 03:34:00,
2013-11-28 21:39:00,12.2,7.8,30.48,NNW,339,0.0,0.0,82,0.00,,SKC,0.00,0.00,VWS V14.00,2013-11-29 03:39:00,
2013-11-28 21:44:00,12.2,7.8,30.48,NNW,339,0.0,0.0,82,0.00,,SKC,0.00,0.00,VWS V14.00,2013-11-29 03:44:00,
2013-11-28 21:49:00,12.1,7.9,30.48,NNW,339,0.0,0.0,83,0.00,,SKC,0.00,0.00,VWS V14.00,2013-11-29 03:49:00,
2013-11-28 21:54:00,11.9,7.5,30.48,NNW,339,0.0,0.0,82,0.00,,SKC,0.00,0.00,VWS V14.00,2013-11-29 03:54:00,
2013-11-28 21:59:00,11.8,7.6,30.48,NNW,339,0.0,0.0,83,0.00,,SKC,0.00,0.00,VWS V14.00,2013-11-29 03:59:00,
2013-11-28 22:04:00,11.8,7.6,30.48,NNW,339,0.0,0.0,83,0.00,,SKC,0.00,0.00,VWS V14.00,2013-11-29 04:04:00,
2013-11-28 22:10:00,11.7,7.6,30.48,NNW,339,0.0,0.0,83,0.00,,SKC,0.00,0.00,VWS V14.00,2013-11-29 04:10:00,
2013-11-28 22:15:00,11.7,7.6,30.48,NNW,339,0.0,0.0,83,0.00,,SKC,0.00,0.00,VWS V14.00,2013-11-29 04:15:00,
2013-11-28 22:20:00,11.7,7.8,30.48,NNW,339,0.0,0.0,84,0.00,,SKC,0.00,0.00,VWS V14.00,2013-11-29 04:20:00,
2013-11-28 22:25:00,11.8,7.9,30.48,NNW,339,0.0,0.0,84,0.00,,SKC,0.00,0.00,VWS V14.00,2013-11-29 04:25:00,
2013-11-28 22:30:00,11.9,8.0,30.48,NNW,339,0.0,0.0,84,0.00,,SKC,0.00,0.00,VWS V14.00,2013-11-29 04:30:00,
2013-11-28 22:35:00,12.1,8.2,30.48,NNW,339,0.0,0.0,84,0.00,,SKC,0.00,0.00,VWS V14.00,2013-11-29 04:35:00,
2013-11-28 22:40:00,12.1,8.5,30.48,NNW,339,0.0,0.0,85,0.00,,SKC,0.00,0.00,VWS V14.00,2013-11-29 04:40:00,
2013-11-28 22:45:00,12.2,8.3,30.48,NNW,339,0.0,0.0,84,0.00,,SKC,0.00,0.00,VWS V14.00,2013-11-29 04:45:00,
2013-11-28 22:50:00,12.2,8.3,30.48,NNW,339,0.0,0.0,84,0.00,,SKC,0.00,0.00,VWS V14.00,2013-11-29 04:50:00,
2013-11-28 22:55:00,12.0,7.8,30.48,NNW,339,0.0,0.0,83,0.00,,SKC,0.00,0.00,VWS V14.00,2013-11-29 04:55:00,
2013-11-28 23:00:00,11.8,7.6,30.48,NNW,339,0.0,0.0,83,0.00,,SKC,0.00,0.00,VWS V14.00,2013-11-29 05:00:00,
2013-11-28 23:01:00,11.8,7.6,30.48,NNW,339,0.0,0.0,83,0.00,,SKC,0.00,0.00,VWS V14.00,2013-11-29 05:01:00,
2013-11-28 23:03:00,11.7,7.6,30.48,NNW,339,0.0,0.0,83,0.00,,SKC,0.00,0.00,VWS V14.00,2013-11-29 05:03:00,
2013-11-28 23:06:00,11.6,7.4,30.48,NNW,339,0.0,0.0,83,0.00,,SKC,0.00,0.00,VWS V14.00,2013-11-29 05:06:00,
2013-11-28 23:08:00,11.5,9.6,30.48,NNW,339,0.0,0.0,92,0.00,,SKC,0.00,0.00,VWS V14.00,2013-11-29 05:08:00,
2013-11-28 23:13:00,11.4,7.5,30.48,NNW,339,0.0,0.0,84,0.00,,SKC,0.00,0.00,VWS V14.00,2013-11-29 05:13:00,
2013-11-28 23:15:00,11.3,7.4,30.48,NNW,339,0.0,0.0,84,0.00,,SKC,0.00,0.00,VWS V14.00,2013-11-29 05:15:00,
2013-11-28 23:20:00,11.1,7.0,30.48,NNW,339,0.0,0.0,83,0.00,,SKC,0.00,0.00,VWS V14.00,2013-11-29 05:20:00,
2013-11-28 23:25:00,10.9,7.0,30.48,NNW,339,0.0,0.0,84,0.00,,SKC,0.00,0.00,VWS V14.00,2013-11-29 05:25:00,
2013-11-28 23:28:00,10.9,7.3,30.48,NNW,339,0.0,0.0,85,0.00,,SKC,0.00,0.00,VWS V14.00,2013-11-29 05:28:00,
2013-11-28 23:33:00,10.8,7.2,30.49,NNW,339,0.0,0.0,85,0.00,,SKC,0.00,0.00,VWS V14.00,2013-11-29 05:33:00,
2013-11-28 23:38:00,10.7,7.1,30.48,NNW,339,0.0,0.0,85,0.00,,SKC,0.00,0.00,VWS V14.00,2013-11-29 05:38:00,
2013-11-28 23:43:00,10.6,7.0,30.48,NNW,339,0.0,0.0,85,0.00,,SKC,0.00,0.00,VWS V14.00,2013-11-29 05:43:00,
2013-11-28 23:48:00,10.8,7.4,30.49,NNW,339,0.0,0.0,86,0.00,,SKC,0.00,0.00,VWS V14.00,2013-11-29 05:48:00,
2013-11-28 23:53:00,11.2,8.1,30.49,NNW,339,0.0,0.0,87,0.00,,SKC,0.00,0.00,VWS V14.00,2013-11-29 05:53:00,
2013-11-28 23:58:00,11.7,8.8,30.49,NNW,339,0.0,0.0,88,0.00,,SKC,0.00,0.00,VWS V14.00,2013-11-29 05:58:00,